TimeCDT,TemperatureF,Dew PointF,Humidity,Sea Level PressureIn,VisibilityMPH,Wind Direction,Wind SpeedMPH,Gust SpeedMPH,PrecipitationIn,Events,Conditions,WindDirDegrees,DateUTC
12:53 AM,64.9,42.1,43,29.76,10.0,East,6.9,-,N/A,,Clear,80,2012-10-18 05:53:00
1:53 AM,60.1,42.1,51,29.78,10.0,NE,6.9,-,N/A,,Clear,50,2012-10-18 06:53:00
2:53 AM,59.0,41.0,51,29.80,10.0,NE,11.5,-,N/A,,Clear,40,2012-10-18 07:53:00
3:53 AM,59.0,36.0,42,29.80,10.0,NE,12.7,-,N/A,,Clear,50,2012-10-18 08:53:00
4:53 AM,57.0,34.0,42,29.81,10.0,NE,9.2,-,N/A,,Clear,40,2012-10-18 09:53:00
5:53 AM,55.9,33.1,42,29.83,10.0,ENE,9.2,-,N/A,,Clear,60,2012-10-18 10:53:00
6:53 AM,54.0,33.1,45,29.88,10.0,NE,9.2,-,N/A,,Clear,40,2012-10-18 11:53:00
7:53 AM,53.1,33.1,47,29.90,10.0,ENE,6.9,-,N/A,,Clear,60,2012-10-18 12:53:00
8:53 AM,53.1,36.0,52,29.94,10.0,North,3.5,-,N/A,,Clear,10,2012-10-18 13:53:00
9:53 AM,59.0,33.1,38,29.97,10.0,East,6.9,-,N/A,,Clear,80,2012-10-18 14:53:00
10:53 AM,62.1,30.0,30,30.00,10.0,East,11.5,-,N/A,,Clear,90,2012-10-18 15:53:00
11:53 AM,64.0,30.9,29,30.00,10.0,East,11.5,-,N/A,,Clear,100,2012-10-18 16:53:00
12:53 PM,66.9,33.1,28,29.99,10.0,ESE,11.5,-,N/A,,Clear,110,2012-10-18 17:53:00
1:53 PM,70.0,33.1,26,29.96,10.0,East,11.5,-,N/A,,Clear,90,2012-10-18 18:53:00
2:53 PM,71.1,34.0,26,29.92,10.0,SSE,9.2,17.3,N/A,,Clear,160,2012-10-18 19:53:00
3:53 PM,73.0,34.0,24,29.91,10.0,NNE,3.5,-,N/A,,Clear,30,2012-10-18 20:53:00
4:53 PM,73.0,33.1,23,29.91,10.0,Calm,Calm,-,N/A,,Clear,0,2012-10-18 21:53:00
5:53 PM,73.9,32.0,21,29.90,10.0,Calm,Calm,-,N/A,,Clear,0,2012-10-18 22:53:00
6:53 PM,70.0,35.1,28,29.91,10.0,NE,3.5,-,N/A,,Clear,40,2012-10-18 23:53:00
7:53 PM,64.0,35.1,34,29.93,10.0,East,6.9,-,N/A,,Clear,90,2012-10-19 00:53:00
8:53 PM,63.0,34.0,34,29.94,10.0,East,9.2,-,N/A,,Clear,100,2012-10-19 01:53:00
9:53 PM,61.0,34.0,36,29.95,10.0,East,11.5,-,N/A,,Clear,100,2012-10-19 02:53:00
10:53 PM,57.9,35.1,42,29.96,10.0,SE,8.1,-,N/A,,Clear,130,2012-10-19 03:53:00
11:53 PM,55.0,36.0,49,29.96,10.0,SSE,6.9,-,N/A,,Clear,160,2012-10-19 04:53:00